Weather History for Rifle, CO

Change the Weather History Date:

Thursday, November 8, 2012

  Actual Average Record
Temperature  
Mean Temperature 49 °F 39 °F  
Max Temperature 70 °F 52 °F 71 °F (1931)
Min Temperature 27 °F 26 °F 9 °F (1955)
Degree Days  
Heating Degree Days 16 26  
Month to date heating degree days 141 196  
Since 1 July heating degree days 679 840  
Cooling Degree Days 0 0  
Month to date cooling degree days 0 0  
Year to date cooling degree days 809 541  
Moisture  
Dew Point 18 °F    
Average Humidity 39    
Maximum Humidity 68    
Minimum Humidity 10    
Precipitation  
Precipitation 0.00 in 0.04 in 0.95 in (1944)
Month to date precipitation 0.00 0.41  
Year to date precipitation 6.80 12.77  
Sea Level Pressure  
Sea Level Pressure 29.86 in    
Wind  
Wind Speed 4 mph (WSW)    
Max Wind Speed 29 mph    
Max Gust Speed 36 mph    
Visibility 10 miles    
Events      
T = Trace of Precipitation, MM = Missing Value Source: NWS Daily Summary

Daily Weather History Graph

Daily Weather History Graph

Search for Another Location

Airport:

Trip Planner

Search our weather history database for the weather conditions in past years. The results will help you decide how hot, cold, wet, or windy it might be!

Date:

Astronomy

Nov. 08, 2012 Rise Set
Actual Time 6:47 AM MST 5:01 PM MST
Civil Twilight 6:19 AM MST 5:29 PM MST
Nautical Twilight 5:47 AM MST 6:01 PM MST
Astronomical Twilight 5:15 AM MST 6:33 PM MST
Moon 12:47 AM MST (11/8) 1:42 PM MST (11/8)
Length of Visible Light 11h 10m
Length of Day
10h 13m
Waning Crescent, 32% of the Moon is Illuminated
Nov 8
Waning Crescent
Nov 13
New
Nov 20
First Quarter
Nov 28
Full
Dec 6
Last Quarter

Hourly Weather History & Observations

Time (MST) Temp. Windchill Dew Point Humidity Pressure Visibility Wind Dir Wind Speed Gust Speed Precip Events Conditions
12:53 AM 34.0 °F 29.8 °F 19.0 °F 54% 30.01 in 10.0 mi SW 4.6 mph - N/A   Clear
1:53 AM 33.1 °F - 19.0 °F 56% 30.00 in 10.0 mi Calm Calm - N/A   Clear
2:53 AM 30.9 °F - 19.0 °F 61% 29.99 in 10.0 mi Calm Calm - N/A   Clear
3:53 AM 30.9 °F - 18.0 °F 59% 29.98 in 10.0 mi Calm Calm - N/A   Clear
4:53 AM 28.9 °F - 18.0 °F 64% 30.00 in 10.0 mi Calm Calm - N/A   Clear
5:53 AM 30.0 °F - 18.0 °F 61% 30.00 in 10.0 mi Calm Calm - N/A   Clear
6:53 AM 27.0 °F - 18.0 °F 69% 30.01 in 10.0 mi Calm Calm - N/A   Clear
7:53 AM 34.0 °F - 19.9 °F 56% 30.00 in 10.0 mi Calm Calm - N/A   Clear
8:53 AM 37.0 °F - 19.9 °F 50% 29.97 in 10.0 mi Calm Calm - N/A   Clear
9:53 AM 44.1 °F - 21.0 °F 40% 29.94 in 10.0 mi Calm Calm - N/A   Clear
10:53 AM 46.9 °F - 21.9 °F 37% 29.91 in 10.0 mi Calm Calm - N/A   Clear
11:53 AM 54.0 °F - 21.0 °F 28% 29.85 in 10.0 mi West 4.6 mph - N/A   Clear
12:53 PM 61.0 °F - 21.9 °F 22% 29.78 in 10.0 mi Calm Calm - N/A   Clear
1:53 PM 66.9 °F - 19.0 °F 16% 29.75 in 10.0 mi West 13.8 mph - N/A   Clear
2:53 PM 69.1 °F - 10.0 °F 10% 29.73 in 10.0 mi WSW 11.5 mph 20.7 mph N/A   Clear
3:53 PM 66.9 °F - 12.9 °F 12% 29.73 in 10.0 mi WSW 12.7 mph 20.7 mph N/A   Clear
4:53 PM 61.0 °F - 14.0 °F 16% 29.76 in 10.0 mi WSW 5.8 mph - N/A   Clear
5:53 PM 55.9 °F - 12.9 °F 18% 29.78 in 10.0 mi SW 5.8 mph - N/A   Clear
6:53 PM 48.0 °F - 14.0 °F 26% 29.83 in 10.0 mi Calm Calm - N/A   Clear
7:53 PM 50.0 °F - 14.0 °F 24% 29.79 in 10.0 mi Calm Calm - N/A   Clear
8:53 PM 45.0 °F 42.6 °F 15.1 °F 30% 29.80 in 10.0 mi West 4.6 mph - N/A   Clear
9:53 PM 53.1 °F - 15.1 °F 22% 29.74 in 10.0 mi SE 8.1 mph - N/A   Scattered Clouds
10:53 PM 59.0 °F - 21.9 °F 24% 29.70 in 10.0 mi SW 21.9 mph 35.7 mph N/A   Partly Cloudy
11:53 PM 60.1 °F - 21.0 °F 22% 29.69 in 10.0 mi WSW 11.5 mph 26.5 mph N/A   Scattered Clouds